Tracking 30918 objects as of 2-Jul-2025
HD Live streaming from Space Station
objects crossing your sky now

SL-8 R/B

Track SL-8 R/B now!
10-day predictions


NORAD ID: 35637
Int'l Code: 2009-039C
Perigee: 917.4 km
Apogee: 942.5 km
Inclination: 83.0 °
Period: 103.5 minutes
Semi major axis: 7300 km
RCS: 4.539 m2 (large)
Launch date: July 21, 2009
Source: Commonwealth of Independent States (former USSR) (CIS)
Launch site: PLESETSK MISSILE AND SPACE COMPLEX (PKMTR)

Note: This is a ROCKET BODY
Your satellite tracking list
Your tracking list is empty




NASA's NSSDC Master Catalog

Two Line Element Set (TLE):
1 35637U 09039C   25182.74715697  .00000015  00000-0 -65264-6 0  9995
2 35637  82.9556 280.0604 0017184 115.3400 355.3168 13.91674675607751
Source of the keplerian elements: AFSPC